date,City,No. Stations,Air Quality,Index Value,Prominent Pollutant
2021-07-18,Motihari,1.0,Good,49,O3
2021-07-19,Motihari,1.0,Satisfactory,68,O3
2021-07-20,Motihari,1.0,Good,46,O3
2021-07-21,Motihari,1.0,Good,49,O3
2021-07-22,Motihari,1.0,Good,45,O3
2021-07-23,Motihari,1.0,Good,45,O3
2021-07-24,Motihari,1.0,Good,37,O3
2021-07-25,Motihari,1.0,Satisfactory,58,O3
2021-07-26,Motihari,1.0,Satisfactory,58,PM2.5
2021-07-27,Motihari,1.0,Good,40,O3
2021-07-28,Motihari,1.0,Satisfactory,51,O3
2021-07-29,Motihari,1.0,Good,40,O3
2021-07-30,Motihari,1.0,Good,38,O3
2021-07-31,Motihari,1.0,Good,44,O3
2021-08-01,Motihari,1.0,Good,50,O3
2021-08-02,Motihari,1.0,Good,45,O3
2021-08-04,Motihari,1.0,Good,42,O3
2021-08-09,Motihari,1.0,Satisfactory,77,PM10
2021-08-10,Motihari,1.0,Good,44,PM10
2021-11-13,Motihari,1.0,Poor,267,PM2.5
2021-11-14,Motihari,1.0,Very Poor,334,PM2.5
2021-11-16,Motihari,1.0,Very Poor,327,PM2.5
2021-11-17,Motihari,1.0,Very Poor,309,PM2.5
2021-11-18,Motihari,1.0,Very Poor,314,PM2.5
2021-11-19,Motihari,1.0,Very Poor,342,PM2.5
2021-11-20,Motihari,1.0,Very Poor,345,PM2.5
2021-11-21,Motihari,1.0,Severe,428,PM2.5
2021-11-22,Motihari,1.0,Severe,426,PM2.5
2021-11-23,Motihari,1.0,Very Poor,352,PM2.5
2021-11-24,Motihari,1.0,Very Poor,386,PM2.5
2021-11-25,Motihari,1.0,Poor,300,PM2.5
2021-11-27,Motihari,1.0,Very Poor,383,PM2.5
2021-11-28,Motihari,1.0,Very Poor,339,PM2.5
2021-11-29,Motihari,1.0,Very Poor,398,PM2.5
2021-11-30,Motihari,1.0,Very Poor,376,PM2.5
2021-12-01,Motihari,1.0,Very Poor,318,PM2.5
2021-12-02,Motihari,1.0,Very Poor,337,PM2.5
2021-12-03,Motihari,1.0,Very Poor,332,PM2.5
2021-12-04,Motihari,1.0,Poor,225,PM2.5
2021-12-05,Motihari,1.0,Moderate,186,PM2.5
2021-12-06,Motihari,1.0,Moderate,185,PM2.5
2021-12-07,Motihari,1.0,Poor,247,PM2.5
2021-12-08,Motihari,1.0,Poor,235,PM2.5
2021-12-09,Motihari,1.0,Moderate,196,PM2.5
2021-12-10,Motihari,1.0,Poor,261,PM2.5
2021-12-11,Motihari,1.0,Poor,240,PM2.5
2021-12-12,Motihari,1.0,Poor,298,PM2.5
2021-12-13,Motihari,1.0,Poor,291,PM2.5
2021-12-14,Motihari,1.0,Very Poor,301,PM2.5
2021-12-15,Motihari,1.0,Very Poor,312,PM2.5
2021-12-17,Motihari,1.0,Very Poor,303,PM2.5
2021-12-21,Motihari,1.0,Very Poor,337,PM2.5
2021-12-22,Motihari,1.0,Very Poor,310,PM2.5
2021-12-23,Motihari,1.0,Very Poor,305,PM2.5
2021-12-24,Motihari,1.0,Poor,297,PM2.5
2021-12-25,Motihari,1.0,Poor,256,PM2.5
2021-12-26,Motihari,1.0,Poor,227,PM2.5
2021-12-27,Motihari,1.0,Poor,273,PM2.5
2021-12-28,Motihari,1.0,Poor,296,PM2.5
2022-01-01,Motihari,1.0,Moderate,165,PM2.5
2022-01-02,Motihari,1.0,Moderate,199,PM2.5
2022-01-03,Motihari,1.0,Poor,215,PM2.5
2022-01-04,Motihari,1.0,Poor,298,PM2.5
2022-01-05,Motihari,1.0,Poor,282,PM2.5
2022-01-06,Motihari,1.0,Very Poor,316,PM2.5
2022-01-07,Motihari,1.0,Poor,275,PM2.5
2022-01-08,Motihari,1.0,Moderate,135,PM2.5
2022-01-09,Motihari,1.0,Moderate,136,PM2.5
2022-01-11,Motihari,1.0,Poor,298,PM2.5
2022-01-12,Motihari,1.0,Poor,254,PM2.5
2022-01-13,Motihari,1.0,Moderate,105,PM2.5
2022-01-14,Motihari,1.0,Poor,203,PM2.5
2022-01-15,Motihari,1.0,Poor,214,PM2.5
2022-01-16,Motihari,1.0,Poor,236,PM2.5
2022-01-18,Motihari,1.0,Moderate,183,PM2.5
2022-01-19,Motihari,1.0,Poor,241,PM2.5
2022-01-20,Motihari,1.0,Poor,224,PM2.5
2022-01-21,Motihari,1.0,Poor,283,PM2.5
2022-01-22,Motihari,1.0,Poor,291,PM2.5
2022-01-23,Motihari,1.0,Very Poor,312,PM2.5
2022-01-24,Motihari,1.0,Poor,210,PM2.5
2022-01-25,Motihari,1.0,Poor,235,PM2.5
2022-01-26,Motihari,1.0,Moderate,181,PM2.5
2022-01-27,Motihari,1.0,Poor,251,PM2.5
2022-01-28,Motihari,1.0,Poor,224,PM2.5
2022-01-30,Motihari,1.0,Poor,292,PM2.5
2022-01-31,Motihari,1.0,Very Poor,339,PM2.5
2022-02-03,Motihari,1.0,Very Poor,318,PM2.5
2022-02-04,Motihari,1.0,Satisfactory,98,PM10
2022-02-05,Motihari,1.0,Satisfactory,72,O3
2022-02-06,Motihari,1.0,Satisfactory,100,CO
2022-02-07,Motihari,1.0,Poor,221,PM2.5
2022-02-08,Motihari,1.0,Poor,247,PM2.5
2022-02-09,Motihari,1.0,Poor,260,PM2.5
2022-02-10,Motihari,1.0,Poor,242,PM2.5
2022-02-11,Motihari,1.0,Moderate,150,O3
2022-02-12,Motihari,1.0,Poor,203,PM2.5
2022-02-13,Motihari,1.0,Poor,258,PM2.5
2022-02-14,Motihari,1.0,Poor,292,PM2.5
2022-02-15,Motihari,1.0,Poor,260,PM2.5
2022-02-16,Motihari,1.0,Poor,245,PM2.5
2022-02-17,Motihari,1.0,Poor,243,PM2.5
2022-02-18,Motihari,1.0,Poor,228,PM2.5
2022-02-19,Motihari,1.0,Poor,210,PM2.5
2022-02-20,Motihari,1.0,Moderate,151,O3
2022-02-21,Motihari,1.0,Moderate,162,O3
2022-02-22,Motihari,1.0,Poor,215,PM2.5
2022-02-23,Motihari,1.0,Poor,210,PM2.5
2022-02-24,Motihari,1.0,Moderate,157,PM2.5
2022-02-25,Motihari,1.0,Moderate,157,PM2.5
2022-02-26,Motihari,1.0,Poor,204,PM2.5
2022-02-27,Motihari,1.0,Poor,231,PM2.5
2022-02-28,Motihari,1.0,Poor,208,PM2.5
2022-03-01,Motihari,1.0,Moderate,112,PM10
2022-03-03,Motihari,1.0,Poor,215,PM2.5
2022-03-04,Motihari,1.0,Moderate,179,PM2.5
2022-03-05,Motihari,1.0,Moderate,150,O3
2022-03-06,Motihari,1.0,Moderate,155,PM2.5
2022-03-07,Motihari,1.0,Poor,242,PM2.5
2022-03-08,Motihari,1.0,Poor,217,PM2.5
2022-03-09,Motihari,1.0,Moderate,176,PM2.5
2022-03-11,Motihari,1.0,Poor,209,PM2.5
2022-03-12,Motihari,1.0,Poor,234,O3
2022-03-13,Motihari,1.0,Poor,237,PM2.5
2022-03-15,Motihari,1.0,Poor,260,O3
2022-03-16,Motihari,1.0,Poor,294,PM2.5
2022-03-17,Motihari,1.0,Poor,248,PM2.5
2022-03-22,Motihari,1.0,Moderate,195,PM10
2022-03-23,Motihari,1.0,Poor,221,PM2.5
2022-03-24,Motihari,1.0,Poor,271,PM10
2022-03-25,Motihari,1.0,Poor,203,PM10
2022-03-26,Motihari,1.0,Moderate,160,PM10
2022-03-29,Motihari,1.0,Poor,204,PM10
2022-03-30,Motihari,1.0,Moderate,152,PM10
2022-03-31,Motihari,1.0,Moderate,160,O3
2022-04-01,Motihari,1.0,Moderate,199,PM2.5
2022-04-02,Motihari,1.0,Moderate,158,PM10
2022-04-03,Motihari,1.0,Moderate,120,PM10
2022-04-04,Motihari,1.0,Moderate,198,O3
2022-04-05,Motihari,1.0,Poor,211,PM10
2022-04-06,Motihari,1.0,Poor,234,O3
2022-04-07,Motihari,1.0,Poor,207,PM2.5
2022-04-08,Motihari,1.0,Moderate,182,O3
2022-04-09,Motihari,1.0,Moderate,169,O3
2022-04-10,Motihari,1.0,Moderate,116,PM2.5
2022-04-11,Motihari,1.0,Moderate,109,O3
2022-04-12,Motihari,1.0,Moderate,119,PM2.5
2022-04-13,Motihari,1.0,Moderate,181,PM2.5
2022-04-14,Motihari,1.0,Moderate,195,PM2.5
2022-04-15,Motihari,1.0,Poor,277,PM2.5
2022-04-16,Motihari,1.0,Poor,245,PM2.5
2022-04-17,Motihari,1.0,Poor,275,PM2.5
2022-04-18,Motihari,1.0,Poor,263,O3
2022-04-19,Motihari,1.0,Moderate,151,O3
2022-04-21,Motihari,1.0,Moderate,173,O3
2022-04-22,Motihari,1.0,Moderate,158,O3
2022-04-23,Motihari,1.0,Poor,240,O3
2022-04-24,Motihari,1.0,Poor,267,PM2.5
2022-04-25,Motihari,1.0,Poor,220,PM2.5
2022-04-26,Motihari,1.0,Poor,269,PM2.5
2022-04-27,Motihari,1.0,Poor,217,PM2.5
2022-04-28,Motihari,1.0,Moderate,171,O3
2022-04-29,Motihari,1.0,Moderate,153,O3
2022-05-01,Motihari,1.0,Moderate,150,O3
2022-05-02,Motihari,1.0,Moderate,170,O3
2022-05-05,Motihari,1.0,Satisfactory,93,O3
2022-05-06,Motihari,1.0,Moderate,117,O3
2022-05-07,Motihari,1.0,Moderate,108,O3
2022-05-08,Motihari,1.0,Moderate,118,O3
2022-05-09,Motihari,1.0,Moderate,119,O3
2022-05-10,Motihari,1.0,Satisfactory,85,O3
2022-05-11,Motihari,1.0,Satisfactory,80,O3
2022-05-12,Motihari,1.0,Satisfactory,82,PM2.5
2022-05-13,Motihari,1.0,Moderate,110,O3
2022-05-14,Motihari,1.0,Moderate,153,O3
2022-05-15,Motihari,1.0,Satisfactory,86,O3
2022-05-16,Motihari,1.0,Moderate,103,O3
2022-05-17,Motihari,1.0,Moderate,170,O3
2022-05-18,Motihari,1.0,Moderate,106,O3
2022-05-19,Motihari,1.0,Moderate,147,PM2.5
2022-05-20,Motihari,1.0,Moderate,132,O3
2022-05-21,Motihari,1.0,Moderate,116,O3
2022-05-24,Motihari,1.0,Moderate,164,O3
2022-05-25,Motihari,1.0,Moderate,169,O3
2022-05-26,Motihari,1.0,Moderate,193,O3
2022-05-27,Motihari,1.0,Poor,235,O3
2022-05-28,Motihari,1.0,Moderate,166,O3
2022-05-29,Motihari,1.0,Moderate,111,PM2.5
2022-05-30,Motihari,1.0,Moderate,121,O3
2022-05-31,Motihari,1.0,Moderate,161,O3
2022-06-01,Motihari,1.0,Moderate,170,PM2.5
2022-06-02,Motihari,1.0,Moderate,102,PM2.5
2022-06-03,Motihari,1.0,Moderate,173,O3
2022-06-04,Motihari,1.0,Moderate,160,O3
2022-06-05,Motihari,1.0,Moderate,172,O3
2022-06-06,Motihari,1.0,Moderate,109,O3
2022-06-07,Motihari,1.0,Satisfactory,100,O3
2022-06-08,Motihari,1.0,Satisfactory,84,O3
2022-06-10,Motihari,1.0,Satisfactory,97,O3
2022-06-11,Motihari,1.0,Moderate,119,O3
2022-06-12,Motihari,1.0,Moderate,158,O3
2022-06-14,Motihari,1.0,Moderate,172,O3
2022-06-15,Motihari,1.0,Satisfactory,88,O3
2022-06-16,Motihari,1.0,Moderate,125,O3
2022-06-17,Motihari,1.0,Moderate,116,O3
2022-06-18,Motihari,1.0,Moderate,104,O3
2022-06-22,Motihari,1.0,Satisfactory,87,O3
2022-06-24,Motihari,1.0,Moderate,107,PM2.5
2022-06-25,Motihari,1.0,Satisfactory,72,O3
2022-06-26,Motihari,1.0,Satisfactory,85,O3
2022-06-27,Motihari,1.0,Satisfactory,65,O3
2022-06-28,Motihari,1.0,Satisfactory,75,PM10
2022-07-02,Motihari,1.0,Satisfactory,56,O3
2022-07-03,Motihari,1.0,Satisfactory,77,O3
2022-07-05,Motihari,1.0,Satisfactory,74,O3
2022-07-06,Motihari,1.0,Satisfactory,77,O3
2022-07-07,Motihari,1.0,Satisfactory,72,O3
2022-07-08,Motihari,1.0,Satisfactory,82,O3
2022-07-09,Motihari,1.0,Satisfactory,67,O3
2022-07-10,Motihari,1.0,Satisfactory,89,O3
2022-07-11,Motihari,1.0,Satisfactory,82,O3
2022-07-12,Motihari,1.0,Satisfactory,64,O3
2022-07-13,Motihari,1.0,Satisfactory,71,O3
2022-07-14,Motihari,1.0,Satisfactory,64,O3
2022-07-15,Motihari,1.0,Satisfactory,77,O3
2022-07-16,Motihari,1.0,Satisfactory,58,PM10
2022-07-17,Motihari,1.0,Satisfactory,57,O3
2022-07-18,Motihari,1.0,Satisfactory,66,O3
2022-07-19,Motihari,1.0,Satisfactory,68,O3
2022-07-20,Motihari,1.0,Satisfactory,55,O3
2022-07-21,Motihari,1.0,Satisfactory,56,O3
2022-07-22,Motihari,1.0,Satisfactory,54,O3
2022-07-23,Motihari,1.0,Good,44,O3
2022-07-24,Motihari,1.0,Good,49,O3
2022-07-25,Motihari,1.0,Satisfactory,55,O3
2022-07-26,Motihari,1.0,Satisfactory,53,O3
2022-07-27,Motihari,1.0,Satisfactory,53,O3
2022-07-28,Motihari,1.0,Satisfactory,66,O3
2022-07-29,Motihari,1.0,Good,46,PM2.5
2022-07-30,Motihari,1.0,Satisfactory,59,O3
2022-08-01,Motihari,1.0,Good,42,O3
2022-08-02,Motihari,1.0,Good,46,O3
2022-08-03,Motihari,1.0,Satisfactory,56,O3
2022-08-04,Motihari,1.0,Satisfactory,61,O3
2022-08-05,Motihari,1.0,Satisfactory,63,O3
2022-08-06,Motihari,1.0,Satisfactory,59,PM10
2022-08-07,Motihari,1.0,Satisfactory,64,O3
2022-08-08,Motihari,1.0,Satisfactory,62,O3
2022-08-09,Motihari,1.0,Satisfactory,64,O3
2022-08-10,Motihari,1.0,Good,48,O3
2022-08-11,Motihari,1.0,Satisfactory,56,O3
2022-08-12,Motihari,1.0,Satisfactory,60,O3
2022-08-13,Motihari,1.0,Satisfactory,71,O3
2022-08-14,Motihari,1.0,Good,44,O3
2022-08-15,Motihari,1.0,Satisfactory,60,O3
2022-08-16,Motihari,1.0,Satisfactory,62,O3
2022-08-17,Motihari,1.0,Moderate,156,PM2.5
2022-08-18,Motihari,1.0,Satisfactory,73,PM2.5
2022-08-19,Motihari,1.0,Satisfactory,61,PM2.5
2022-08-21,Motihari,1.0,Satisfactory,52,O3
2022-08-22,Motihari,1.0,Satisfactory,70,O3
2022-08-23,Motihari,1.0,Satisfactory,78,PM2.5
2022-08-24,Motihari,1.0,Satisfactory,68,O3
2022-08-25,Motihari,1.0,Satisfactory,62,O3
2022-08-26,Motihari,1.0,Satisfactory,76,O3
2022-08-27,Motihari,1.0,Moderate,130,PM2.5
2022-08-29,Motihari,1.0,Satisfactory,71,O3
2022-08-30,Motihari,1.0,Satisfactory,82,PM2.5
2022-09-03,Motihari,1.0,Good,49,O3
2022-09-04,Motihari,1.0,Satisfactory,79,O3
2022-09-05,Motihari,1.0,Satisfactory,75,O3
2022-09-07,Motihari,1.0,Satisfactory,61,PM2.5
2022-09-08,Motihari,1.0,Satisfactory,76,PM2.5
2022-09-09,Motihari,1.0,Good,40,O3
2022-09-10,Motihari,1.0,Satisfactory,55,O3
2022-09-11,Motihari,1.0,Good,50,O3
2022-09-13,Motihari,1.0,Good,46,O3
2022-09-16,Motihari,1.0,Good,45,O3
2022-09-17,Motihari,1.0,Satisfactory,92,CO
2022-09-20,Motihari,1.0,Good,46,O3
2022-09-21,Motihari,1.0,Good,49,O3
2022-09-22,Motihari,1.0,Satisfactory,55,O3
2022-09-23,Motihari,1.0,Satisfactory,73,PM2.5
2022-09-24,Motihari,1.0,Satisfactory,74,PM10
2022-09-25,Motihari,1.0,Satisfactory,57,O3
2022-09-26,Motihari,1.0,Good,47,CO
2022-09-27,Motihari,1.0,Satisfactory,66,CO
2022-09-28,Motihari,1.0,Satisfactory,64,PM10
2022-09-29,Motihari,1.0,Moderate,171,CO
2022-09-30,Motihari,1.0,Satisfactory,69,O3
2022-10-01,Motihari,1.0,Moderate,103,PM10
2022-10-02,Motihari,1.0,Satisfactory,91,PM10
2022-10-03,Motihari,1.0,Satisfactory,100,PM10
2022-10-04,Motihari,1.0,Good,35,O3
2022-10-05,Motihari,1.0,Satisfactory,53,O3
2022-10-06,Motihari,1.0,Good,41,O3
2022-10-07,Motihari,1.0,Satisfactory,53,O3
2022-10-08,Motihari,1.0,Good,50,O3
2022-10-09,Motihari,1.0,Satisfactory,61,O3
2022-10-10,Motihari,1.0,Good,50,O3
2022-10-11,Motihari,1.0,Good,40,O3
2022-10-12,Motihari,1.0,Satisfactory,62,O3
2022-10-13,Motihari,1.0,Satisfactory,67,PM10
2022-10-14,Motihari,1.0,Satisfactory,80,O3
2022-10-15,Motihari,1.0,Satisfactory,97,O3
2022-10-16,Motihari,1.0,Moderate,116,O3
2022-10-17,Motihari,1.0,Moderate,116,PM10
2022-10-18,Motihari,1.0,Moderate,109,PM10
2022-10-19,Motihari,1.0,Moderate,146,PM10
2022-10-20,Motihari,1.0,Moderate,158,PM10
2022-10-21,Motihari,1.0,Moderate,164,PM10
2022-10-22,Motihari,1.0,Moderate,144,PM10
2022-10-23,Motihari,1.0,Moderate,121,PM10
2022-10-24,Motihari,1.0,Poor,201,PM2.5
2022-10-25,Motihari,1.0,Moderate,183,PM2.5
2022-10-26,Motihari,1.0,Very Poor,301,PM2.5
2022-10-27,Motihari,1.0,Very Poor,343,PM2.5
2022-10-28,Motihari,1.0,Very Poor,346,PM2.5
2022-10-29,Motihari,1.0,Very Poor,351,PM2.5
2022-10-30,Motihari,1.0,Very Poor,311,PM2.5
2022-10-31,Motihari,1.0,Poor,273,PM2.5
2022-11-01,Motihari,1.0,Poor,264,PM2.5
2022-11-02,Motihari,1.0,Poor,281,PM2.5
2022-11-03,Motihari,1.0,Very Poor,372,PM2.5
2022-11-04,Motihari,1.0,Very Poor,363,PM2.5
2022-11-05,Motihari,1.0,Very Poor,315,PM2.5
2022-11-06,Motihari,1.0,Poor,271,PM2.5
2022-11-07,Motihari,1.0,Poor,270,PM2.5
2022-11-08,Motihari,1.0,Very Poor,324,PM2.5
2022-11-09,Motihari,1.0,Very Poor,360,PM2.5
2022-11-10,Motihari,1.0,Very Poor,385,PM2.5
2022-11-11,Motihari,1.0,Severe,413,PM2.5
2022-11-12,Motihari,1.0,Severe,419,PM2.5
2022-11-13,Motihari,1.0,Severe,413,PM2.5
2022-11-15,Motihari,1.0,Very Poor,394,PM2.5
2022-11-17,Motihari,1.0,Severe,448,PM2.5
2022-11-18,Motihari,1.0,Very Poor,362,PM2.5
2022-11-19,Motihari,1.0,Very Poor,377,PM2.5
2022-11-20,Motihari,1.0,Severe,423,PM2.5
2022-11-21,Motihari,1.0,Severe,421,PM2.5
2022-11-22,Motihari,1.0,Severe,413,PM2.5
2022-11-23,Motihari,1.0,Very Poor,388,PM2.5
2022-11-24,Motihari,1.0,Severe,412,PM2.5
2022-11-25,Motihari,1.0,Very Poor,382,PM2.5
2022-11-27,Motihari,1.0,Very Poor,318,PM10
2022-11-28,Motihari,1.0,Severe,402,PM2.5
2022-11-29,Motihari,1.0,Severe,418,PM2.5
2022-11-30,Motihari,1.0,Very Poor,364,PM2.5
2022-12-01,Motihari,1.0,Very Poor,342,PM2.5
2022-12-02,Motihari,1.0,Very Poor,316,PM10
2022-12-03,Motihari,1.0,Very Poor,332,PM10
2022-12-04,Motihari,1.0,Poor,298,PM10
2022-12-06,Motihari,1.0,Very Poor,332,PM10
2022-12-08,Motihari,1.0,Very Poor,318,PM10
2022-12-09,Motihari,1.0,Very Poor,334,PM10
2022-12-10,Motihari,1.0,Very Poor,310,PM10
2022-12-11,Motihari,1.0,Very Poor,305,PM10
2022-12-12,Motihari,1.0,Very Poor,391,PM10
2022-12-13,Motihari,1.0,Very Poor,390,PM10
2022-12-14,Motihari,1.0,Very Poor,371,PM10
2022-12-15,Motihari,1.0,Very Poor,358,PM10
2022-12-16,Motihari,1.0,Poor,226,PM10
2022-12-17,Motihari,1.0,Very Poor,339,PM10
2022-12-18,Motihari,1.0,Very Poor,322,PM10
2022-12-19,Motihari,1.0,Poor,286,PM10
2022-12-20,Motihari,1.0,Very Poor,312,PM10
2022-12-21,Motihari,1.0,Poor,271,PM10
2022-12-22,Motihari,1.0,Poor,224,PM10
2022-12-23,Motihari,1.0,Moderate,197,PM10
2022-12-24,Motihari,1.0,Moderate,185,PM10
2022-12-25,Motihari,1.0,Very Poor,305,PM10
2022-12-26,Motihari,1.0,Poor,289,PM10
2022-12-27,Motihari,1.0,Poor,218,PM10
2022-12-28,Motihari,1.0,Moderate,188,PM10
2022-12-29,Motihari,1.0,Very Poor,315,PM10
2022-12-30,Motihari,1.0,Very Poor,375,PM10
2022-12-31,Motihari,1.0,Very Poor,381,PM10
2023-01-01,Motihari,1.0,Very Poor,360,PM10
2023-01-02,Motihari,1.0,Poor,214,PM10
2023-01-03,Motihari,1.0,Moderate,140,PM10
2023-01-04,Motihari,1.0,Moderate,150,PM10
2023-01-05,Motihari,1.0,Moderate,135,PM10
2023-01-06,Motihari,1.0,Moderate,156,PM10
2023-01-07,Motihari,1.0,Poor,222,PM10
2023-01-08,Motihari,1.0,Moderate,188,PM10
2023-01-10,Motihari,1.0,Moderate,198,PM10
2023-01-11,Motihari,1.0,Moderate,178,PM10
2023-01-12,Motihari,1.0,Poor,266,PM10
2023-01-13,Motihari,1.0,Moderate,184,PM10
2023-01-14,Motihari,1.0,Very Poor,360,PM10
2023-01-15,Motihari,1.0,Poor,238,PM10
2023-01-16,Motihari,1.0,Poor,204,PM10
2023-01-17,Motihari,1.0,Poor,259,PM10
2023-01-18,Motihari,1.0,Poor,300,PM10
2023-01-19,Motihari,1.0,Very Poor,315,PM10
2023-01-20,Motihari,1.0,Very Poor,338,PM10
2023-01-21,Motihari,1.0,Very Poor,324,PM10
2023-01-22,Motihari,1.0,Poor,221,PM10
2023-01-23,Motihari,1.0,Very Poor,345,PM10
2023-01-24,Motihari,1.0,Poor,261,PM10
2023-01-25,Motihari,1.0,Very Poor,311,PM10
2023-01-26,Motihari,1.0,Very Poor,313,PM10
2023-01-27,Motihari,1.0,Moderate,118,PM10
2023-01-28,Motihari,1.0,Moderate,145,PM10
2023-01-29,Motihari,1.0,Poor,221,PM10
2023-01-30,Motihari,1.0,Poor,274,PM10
2023-01-31,Motihari,1.0,Moderate,174,PM10
2023-02-01,Motihari,1.0,Moderate,110,PM10
2023-02-02,Motihari,1.0,Moderate,119,PM10
2023-02-03,Motihari,1.0,Moderate,199,PM10
2023-02-04,Motihari,1.0,Moderate,193,PM10
2023-02-05,Motihari,1.0,Moderate,163,PM10
2023-02-06,Motihari,1.0,Poor,217,PM10
2023-02-07,Motihari,1.0,Poor,252,PM10
2023-02-08,Motihari,1.0,Poor,269,PM10
2023-02-09,Motihari,1.0,Moderate,161,PM10
2023-02-10,Motihari,1.0,Poor,249,PM10
2023-02-11,Motihari,1.0,Poor,266,PM10
2023-02-13,Motihari,1.0,Moderate,164,PM10
2023-02-14,Motihari,1.0,Poor,258,PM10
2023-02-15,Motihari,1.0,Poor,295,PM10
2023-02-16,Motihari,1.0,Very Poor,315,PM10
2023-02-17,Motihari,1.0,Poor,269,PM10
2023-02-18,Motihari,1.0,Poor,241,PM10
2023-02-19,Motihari,1.0,Moderate,190,PM10
2023-03-04,Motihari,1.0,Poor,211,PM10
2023-03-05,Motihari,1.0,Moderate,150,PM10
2023-03-06,Motihari,1.0,Moderate,128,PM10
2023-03-07,Motihari,1.0,Moderate,142,PM10
2023-03-08,Motihari,1.0,Moderate,178,PM10
2023-03-09,Motihari,1.0,Moderate,150,PM10
2023-03-10,Motihari,1.0,Moderate,177,PM10
2023-03-11,Motihari,1.0,Moderate,160,PM10
2023-03-12,Motihari,1.0,Poor,208,PM10
2023-03-13,Motihari,1.0,Moderate,169,PM10
2023-03-14,Motihari,1.0,Moderate,169,PM10
2023-03-15,Motihari,1.0,Moderate,164,PM10
2023-03-17,Motihari,1.0,Moderate,121,PM10
2023-03-18,Motihari,1.0,Moderate,137,PM10
2023-03-19,Motihari,1.0,Satisfactory,86,NO2
2023-03-20,Motihari,1.0,Satisfactory,82,NO2
2023-03-22,Motihari,1.0,Satisfactory,65,PM10
2023-03-23,Motihari,1.0,Satisfactory,81,PM10
2023-03-24,Motihari,1.0,Moderate,117,PM10
2023-03-25,Motihari,1.0,Moderate,137,PM10
2023-03-26,Motihari,1.0,Moderate,147,PM10
2023-03-27,Motihari,1.0,Moderate,112,NO2
2023-03-28,Motihari,1.0,Moderate,114,NO2
2023-03-29,Motihari,1.0,Moderate,112,NO2
2023-03-30,Motihari,1.0,Moderate,120,NO2
2023-03-31,Motihari,1.0,Moderate,118,PM10
2023-04-01,Motihari,1.0,Satisfactory,90,NO2
2023-04-02,Motihari,1.0,Moderate,120,PM10
2023-04-03,Motihari,1.0,Moderate,105,NO2
2023-04-04,Motihari,1.0,Moderate,118,PM10
2023-04-05,Motihari,1.0,Satisfactory,95,NO2
2023-04-06,Motihari,1.0,Moderate,106,NO2
2023-04-07,Motihari,1.0,Satisfactory,96,PM10
2023-04-09,Motihari,1.0,Moderate,176,PM2.5
2023-04-10,Motihari,1.0,Moderate,142,PM2.5
2023-04-11,Motihari,1.0,Moderate,127,O3
2023-04-12,Motihari,1.0,Poor,201,PM2.5
2023-04-13,Motihari,1.0,Moderate,182,PM2.5
2023-04-14,Motihari,1.0,Moderate,121,PM10
2023-04-15,Motihari,1.0,Moderate,165,PM10
2023-04-16,Motihari,1.0,Moderate,157,PM10
2023-04-18,Motihari,1.0,Moderate,141,PM10
2023-04-19,Motihari,1.0,Moderate,122,PM10
2023-04-20,Motihari,1.0,Moderate,135,PM10
2023-04-21,Motihari,1.0,Moderate,143,PM10
2023-04-22,Motihari,1.0,Moderate,106,PM10
2023-04-23,Motihari,1.0,Satisfactory,99,NO2
2023-04-25,Motihari,1.0,Satisfactory,99,NO2
2023-04-26,Motihari,1.0,Moderate,107,NO2
2023-04-27,Motihari,1.0,Moderate,115,NO2
2023-04-28,Motihari,1.0,Moderate,117,NO2
2023-04-29,Motihari,1.0,Moderate,107,PM10
2023-04-30,Motihari,1.0,Moderate,110,NO2
2023-05-01,Motihari,1.0,Moderate,111,NO2
2023-05-02,Motihari,1.0,Moderate,123,NO2
2023-05-04,Motihari,1.0,Moderate,104,NO2
2023-05-05,Motihari,1.0,Moderate,108,NO2
2023-05-06,Motihari,1.0,Moderate,112,NO2
2023-05-07,Motihari,1.0,Moderate,113,NO2
2023-05-08,Motihari,1.0,Moderate,115,NO2
2023-05-09,Motihari,1.0,Moderate,109,NO2
2023-05-10,Motihari,1.0,Moderate,101,NO2
2023-05-11,Motihari,1.0,Satisfactory,100,NO2
2023-05-12,Motihari,1.0,Moderate,101,NO2
2023-05-13,Motihari,1.0,Satisfactory,93,NO2
2023-05-14,Motihari,1.0,Satisfactory,87,NO2
2023-05-16,Motihari,1.0,Satisfactory,94,NO2
2023-05-17,Motihari,1.0,Satisfactory,81,NO2
2023-05-18,Motihari,1.0,Satisfactory,69,NO2
2023-05-19,Motihari,1.0,Satisfactory,79,NO2
2023-05-20,Motihari,1.0,Satisfactory,71,NO2
2023-05-21,Motihari,1.0,Satisfactory,80,PM10
2023-05-22,Motihari,1.0,Satisfactory,71,NO2
2023-05-24,Motihari,1.0,Satisfactory,67,NO2
2023-05-25,Motihari,1.0,Moderate,107,PM10
2023-05-26,Motihari,1.0,Moderate,102,PM10
2023-05-27,Motihari,1.0,Satisfactory,70,PM10
2023-05-28,Motihari,1.0,Satisfactory,90,PM10
2023-05-30,Motihari,1.0,Moderate,141,PM10
2023-05-31,Motihari,1.0,Moderate,198,PM10
2023-06-01,Motihari,1.0,Moderate,137,PM10
2023-06-02,Motihari,1.0,Moderate,124,PM10
2023-06-03,Motihari,1.0,Moderate,144,PM10
2023-06-04,Motihari,1.0,Moderate,139,PM10
2023-06-05,Motihari,1.0,Moderate,200,PM10
2023-06-06,Motihari,1.0,Moderate,197,PM10
2023-06-07,Motihari,1.0,Moderate,177,PM10
2023-06-08,Motihari,1.0,Satisfactory,75,CO
2023-06-09,Motihari,1.0,Satisfactory,72,NO2
2023-06-10,Motihari,1.0,Moderate,111,PM10
2023-06-11,Motihari,1.0,Satisfactory,92,PM10
2023-06-12,Motihari,1.0,Moderate,125,PM10
2023-06-13,Motihari,1.0,Satisfactory,88,PM10
2023-06-14,Motihari,1.0,Moderate,119,PM10
2023-06-15,Motihari,1.0,Moderate,140,PM10
2023-06-16,Motihari,1.0,Poor,272,PM10
2023-06-17,Motihari,1.0,Moderate,152,PM10
2023-06-18,Motihari,1.0,Moderate,140,PM10
2023-06-19,Motihari,1.0,Satisfactory,89,PM10
2023-06-20,Motihari,1.0,Satisfactory,75,PM10
2023-06-21,Motihari,1.0,Satisfactory,59,PM10
2023-06-22,Motihari,1.0,Satisfactory,60,PM10
2023-06-24,Motihari,1.0,Satisfactory,61,CO
2023-06-25,Motihari,1.0,Satisfactory,52,PM10
2023-06-26,Motihari,1.0,Satisfactory,62,PM10
2023-06-27,Motihari,1.0,Satisfactory,53,PM10
2023-06-30,Motihari,1.0,Satisfactory,65,CO
2023-07-01,Motihari,1.0,Satisfactory,52,CO
2023-07-02,Motihari,1.0,Good,43,CO
2023-07-04,Motihari,1.0,Good,49,CO
2023-07-05,Motihari,1.0,Good,35,NO2
2023-07-06,Motihari,1.0,Good,43,CO
2023-07-07,Motihari,1.0,Good,44,CO
2023-07-08,Motihari,1.0,Good,46,NO2
2023-07-09,Motihari,1.0,Good,42,CO
2023-07-10,Motihari,1.0,Satisfactory,60,CO
2023-07-11,Motihari,1.0,Satisfactory,67,PM10
2023-07-13,Motihari,1.0,Satisfactory,62,CO
2023-07-14,Motihari,1.0,Good,48,CO
2023-07-15,Motihari,1.0,Satisfactory,65,CO
2023-07-16,Motihari,1.0,Good,47,PM10
2023-07-17,Motihari,1.0,Good,45,NO2
2023-07-18,Motihari,1.0,Good,40,NO2
2023-07-19,Motihari,1.0,Good,47,PM10
2023-07-20,Motihari,1.0,Satisfactory,58,PM10
2023-07-21,Motihari,1.0,Satisfactory,57,PM10
2023-07-22,Motihari,1.0,Good,41,CO
2023-07-23,Motihari,1.0,Good,41,PM10
2023-07-24,Motihari,1.0,Satisfactory,54,PM10
2023-07-25,Motihari,1.0,Good,46,CO
2023-07-26,Motihari,1.0,Satisfactory,61,PM10
2023-07-27,Motihari,1.0,Good,48,CO
2023-07-28,Motihari,1.0,Good,46,PM10
2023-07-29,Motihari,1.0,Good,47,PM10
2023-07-30,Motihari,1.0,Satisfactory,57,CO
2023-08-01,Motihari,1.0,Satisfactory,59,PM10
2023-08-05,Motihari,1.0,Good,48,CO
2023-08-06,Motihari,1.0,Satisfactory,56,PM10
2023-08-08,Motihari,1.0,Satisfactory,51,PM10
2023-08-12,Motihari,1.0,Good,47,CO
2023-08-15,Motihari,1.0,Satisfactory,73,PM10
2023-08-18,Motihari,1.0,Satisfactory,53,CO
2023-08-20,Motihari,1.0,Satisfactory,62,PM10
2023-08-21,Motihari,1.0,Satisfactory,98,PM10
2023-08-22,Motihari,1.0,Moderate,105,PM10
2023-08-23,Motihari,1.0,Satisfactory,54,PM10
2023-08-24,Motihari,1.0,Satisfactory,66,CO
2023-08-25,Motihari,1.0,Good,33,PM10
2023-08-26,Motihari,1.0,Good,33,CO
2023-08-27,Motihari,1.0,Satisfactory,85,PM10
2023-08-28,Motihari,1.0,Moderate,162,PM10
2023-08-29,Motihari,1.0,Moderate,140,PM10
2023-08-30,Motihari,1.0,Very Poor,328,PM10
2023-08-31,Motihari,1.0,Poor,292,PM10
2023-09-01,Motihari,1.0,Moderate,136,PM10
2023-09-02,Motihari,1.0,Poor,229,PM10